Weather History for KMOB - July, 2012

Change the Weather History Date:

Sunday, July 8, 2012

  Actual Average Record
Temperature  
Mean Temperature 80 °F 82 °F  
Max Temperature 86 °F 91 °F 101 °F (1881)
Min Temperature 73 °F 73 °F 65 °F (1972)
Cooling Degree Days 15 17  
Month to date cooling degree days 141 134  
Year to date cooling degree days 1298 1023  
Since 1 June cooling degree days 592 578  
Growing Degree Days 30 (Base 50)    
Moisture  
Dew Point 72 °F    
Average Humidity 75    
Maximum Humidity 88    
Minimum Humidity 61    
Precipitation  
Precipitation 0.62 in 0.24 in 3.07 in (1925)
Month to date precipitation 0.85 1.84  
Year to date precipitation 40.86 34.79  
Sea Level Pressure  
Sea Level Pressure 30.06 in    
Wind  
Wind Speed 3 mph (SSW)    
Max Wind Speed 17 mph    
Max Gust Speed 21 mph    
Visibility 8 miles    
Events Rain , Thunderstorm    
T = Trace of Precipitation, MM = Missing Value Source: NWS Daily Summary

Daily Weather History Graph

Daily Weather History Graph

Search for Another Location

Airport or City:

Trip Planner

Search our weather history database for the weather conditions in past years. The results will help you decide how hot, cold, wet, or windy it might be!

Date:

Astronomy

Jul. 08, 2012 Rise Set
Actual Time 5:57 AM CDT 7:58 PM CDT
Civil Twilight 5:29 AM CDT 8:26 PM CDT
Nautical Twilight 4:56 AM CDT 8:59 PM CDT
Astronomical Twilight 4:20 AM CDT 9:35 PM CDT
Moon 11:14 PM CDT (7/8) 10:58 AM CDT (7/8)
Length of Visible Light 14h 56m
Length of Day
14h 01m
Waning Gibbous, 73% of the Moon is Illuminated
Jul 8
Waning Gibbous
Jul 10
Last Quarter
Jul 18
New
Jul 26
First Quarter
Aug 1
Full

Hourly Weather History & Observations

Time (CDT) Temp. Heat Index Dew Point Humidity Pressure Visibility Wind Dir Wind Speed Gust Speed Precip Events Conditions
12:56 AM 75.9 °F - 72.0 °F 87% 30.06 in 10.0 mi SE 3.5 mph - N/A   Partly Cloudy
1:56 AM 75.9 °F - 72.0 °F 87% 30.05 in 10.0 mi Calm Calm - N/A   Partly Cloudy
2:56 AM 75.9 °F - 72.0 °F 87% 30.04 in 10.0 mi South 3.5 mph - N/A   Partly Cloudy
3:56 AM 75.0 °F - 72.0 °F 90% 30.04 in 10.0 mi SSE 3.5 mph - N/A   Partly Cloudy
4:56 AM 75.0 °F - 71.1 °F 87% 30.05 in 10.0 mi Calm Calm - N/A   Partly Cloudy
5:56 AM 75.0 °F - 72.0 °F 90% 30.06 in 10.0 mi Calm Calm - N/A   Scattered Clouds
6:56 AM 78.1 °F - 73.0 °F 84% 30.07 in 10.0 mi Calm Calm - N/A   Mostly Cloudy
7:56 AM 81.0 °F 85.8 °F 73.0 °F 77% 30.09 in 10.0 mi Calm Calm - N/A   Mostly Cloudy
8:56 AM 82.9 °F 88.8 °F 73.0 °F 72% 30.10 in 10.0 mi WSW 4.6 mph - N/A   Mostly Cloudy
9:56 AM 82.0 °F 87.4 °F 73.0 °F 74% 30.09 in 10.0 mi Calm Calm - N/A   Mostly Cloudy
10:32 AM 82.4 °F 88.2 °F 73.4 °F 74% 30.10 in 3.0 mi West 9.2 mph - 0.01 in Rain , Thunderstorm Heavy Thunderstorms and Rain
10:46 AM 78.8 °F - 73.4 °F 83% 30.10 in 2.0 mi West 6.9 mph - 0.17 in Rain , Thunderstorm Heavy Thunderstorms and Rain
10:56 AM 77.0 °F - 73.0 °F 88% 30.10 in 3.0 mi Calm Calm - 0.30 in Rain , Thunderstorm Thunderstorms and Rain
11:16 AM 75.2 °F - 69.8 °F 83% 30.12 in 2.0 mi SSE 3.5 mph - 0.09 in Rain , Thunderstorm Thunderstorms and Rain
11:28 AM 77.0 °F - 69.8 °F 78% 30.10 in 10.0 mi Calm Calm - 0.10 in Thunderstorm Thunderstorm
11:48 AM 78.8 °F - 73.4 °F 83% 30.09 in 10.0 mi Calm Calm - 0.10 in   Mostly Cloudy
11:56 AM 80.1 °F 83.8 °F 72.0 °F 76% 30.08 in 10.0 mi Calm Calm - 0.10 in   Mostly Cloudy
12:56 PM 82.9 °F 87.5 °F 71.1 °F 67% 30.06 in 10.0 mi South 4.6 mph - N/A   Mostly Cloudy
1:56 PM 86.0 °F 91.5 °F 71.1 °F 61% 30.04 in 10.0 mi Calm Calm - N/A   Mostly Cloudy
2:12 PM 84.2 °F 89.6 °F 71.6 °F 66% 30.05 in 7.0 mi WSW 4.6 mph - N/A Thunderstorm Thunderstorm
2:44 PM 86.0 °F 91.8 °F 71.6 °F 62% 30.05 in 7.0 mi West 3.5 mph - N/A   Mostly Cloudy
2:56 PM 86.0 °F 92.2 °F 72.0 °F 63% 30.04 in 7.0 mi WNW 3.5 mph - N/A   Mostly Cloudy
3:08 PM 84.2 °F 90.9 °F 73.4 °F 70% 30.06 in 7.0 mi WSW 9.2 mph - N/A Thunderstorm Thunderstorm
3:20 PM 77.0 °F - 71.6 °F 83% 30.06 in 3.0 mi SSW 12.7 mph - 0.05 in Rain , Thunderstorm Heavy Thunderstorms and Rain
3:27 PM 75.2 °F - 69.8 °F 83% 30.05 in 3.0 mi South 9.2 mph - 0.17 in Rain , Thunderstorm Heavy Thunderstorms and Rain
3:56 PM 77.0 °F - 72.0 °F 84% 30.05 in 7.0 mi ENE 4.6 mph - 0.22 in Thunderstorm Thunderstorm
4:31 PM 78.8 °F - 73.4 °F 83% 30.04 in 7.0 mi Calm Calm - N/A   Mostly Cloudy
4:56 PM 81.0 °F 86.2 °F 73.9 °F 79% 30.02 in 10.0 mi East 3.5 mph - N/A   Mostly Cloudy
5:56 PM 84.9 °F 91.4 °F 73.0 °F 67% 30.01 in 10.0 mi SSW 10.4 mph 16.1 mph N/A   Mostly Cloudy
6:56 PM 82.0 °F 87.4 °F 73.0 °F 74% 30.01 in 10.0 mi SW 3.5 mph - N/A   Overcast
7:56 PM 80.1 °F 84.5 °F 73.9 °F 81% 30.00 in 10.0 mi South 3.5 mph - N/A   Mostly Cloudy
8:56 PM 79.0 °F - 73.9 °F 84% 30.00 in 10.0 mi South 4.6 mph - N/A   Mostly Cloudy
9:56 PM 79.0 °F - 73.0 °F 82% 30.02 in 10.0 mi South 3.5 mph - N/A   Scattered Clouds
10:56 PM 78.1 °F - 73.0 °F 84% 30.04 in 10.0 mi South 3.5 mph - N/A   Scattered Clouds
11:56 PM 77.0 °F - 73.0 °F 88% 30.05 in 10.0 mi Calm Calm - N/A   Scattered Clouds